TimeEST,TemperatureF,Dew PointF,Humidity,Sea Level PressureIn,VisibilityMPH,Wind Direction,Wind SpeedMPH,Gust SpeedMPH,PrecipitationIn,Events,Conditions,WindDirDegrees,DateUTC
12:53 AM,12.9,5.0,71,30.53,10.0,Calm,Calm,-,N/A,,Clear,0,2013-01-25 05:53:00
1:53 AM,14.0,5.0,67,30.51,10.0,Calm,Calm,-,N/A,,Clear,0,2013-01-25 06:53:00
2:53 AM,15.1,3.9,61,30.50,10.0,SE,4.6,-,N/A,,Clear,140,2013-01-25 07:53:00
3:53 AM,15.1,3.9,61,30.46,10.0,ESE,6.9,-,N/A,,Overcast,110,2013-01-25 08:53:00
4:53 AM,15.1,3.9,61,30.44,10.0,ESE,5.8,-,N/A,,Overcast,110,2013-01-25 09:53:00
5:53 AM,15.1,3.0,59,30.40,10.0,ESE,5.8,-,N/A,,Overcast,120,2013-01-25 10:53:00
6:53 AM,15.1,3.9,61,30.33,10.0,ESE,8.1,-,N/A,,Overcast,110,2013-01-25 11:53:00
7:53 AM,16.0,3.9,59,30.32,10.0,SSE,4.6,-,N/A,,Overcast,150,2013-01-25 12:53:00
8:53 AM,16.0,6.1,65,30.30,10.0,SE,9.2,-,N/A,,Overcast,130,2013-01-25 13:53:00
9:23 AM,15.8,6.8,68,30.24,1.8,ESE,8.1,-,0.00,Snow,Light Snow,110,2013-01-25 14:23:00
9:31 AM,15.8,6.8,68,30.24,0.8,ESE,6.9,-,0.00,Snow,Light Snow,110,2013-01-25 14:31:00
9:53 AM,15.1,9.0,77,30.27,0.5,ESE,5.8,-,0.01,Snow,Snow,120,2013-01-25 14:53:00
10:53 AM,15.1,9.0,77,30.24,0.8,SE,6.9,-,0.02,Snow,Light Snow,130,2013-01-25 15:53:00
2:18 PM,17.6,12.2,79,30.06,1.0,ESE,4.6,-,0.00,Snow,Light Snow,110,2013-01-25 19:18:00
2:26 PM,17.6,12.2,79,30.05,1.2,Calm,Calm,-,0.00,Snow,Light Snow,0,2013-01-25 19:26:00
2:53 PM,18.0,12.9,81,30.09,2.0,Calm,Calm,-,0.00,Snow,Light Snow,0,2013-01-25 19:53:00
3:01 PM,17.6,12.2,79,30.04,3.0,Calm,Calm,-,0.00,Snow,Light Snow,0,2013-01-25 20:01:00
3:21 PM,17.6,12.2,79,30.04,5.0,Calm,Calm,-,0.00,Snow,Light Snow,0,2013-01-25 20:21:00
3:44 PM,19.4,10.4,68,30.03,10.0,SE,3.5,-,0.00,,Overcast,140,2013-01-25 20:44:00
3:53 PM,19.0,10.9,71,30.08,10.0,SSE,4.6,-,0.00,,Overcast,150,2013-01-25 20:53:00
4:53 PM,19.0,10.9,71,30.07,10.0,SE,3.5,-,N/A,,Overcast,130,2013-01-25 21:53:00
5:53 PM,19.0,12.0,74,30.09,10.0,Calm,Calm,-,N/A,,Overcast,0,2013-01-25 22:53:00
6:24 PM,19.4,12.2,74,30.05,10.0,Calm,Calm,-,N/A,,Overcast,0,2013-01-25 23:24:00
6:41 PM,19.4,12.2,74,30.04,9.0,Calm,Calm,-,N/A,,Overcast,0,2013-01-25 23:41:00
6:53 PM,19.0,12.0,74,30.08,9.0,Calm,Calm,-,N/A,,Overcast,0,2013-01-25 23:53:00
7:53 PM,19.0,12.9,77,30.09,10.0,Calm,Calm,-,N/A,,Overcast,0,2013-01-26 00:53:00
8:39 PM,19.4,12.2,74,30.05,10.0,Calm,Calm,-,N/A,,Overcast,0,2013-01-26 01:39:00
8:53 PM,19.0,12.9,77,30.09,10.0,Calm,Calm,-,N/A,,Overcast,0,2013-01-26 01:53:00
9:53 PM,19.9,12.9,74,30.13,8.0,WSW,3.5,-,0.00,Snow,Light Snow,240,2013-01-26 02:53:00
10:41 PM,19.4,14.0,80,30.09,2.0,Calm,Calm,-,0.01,Snow,Light Snow,0,2013-01-26 03:41:00
10:53 PM,19.9,15.1,81,30.14,2.0,SW,4.6,-,0.01,Snow,Light Snow,230,2013-01-26 03:53:00
11:19 PM,19.4,15.8,86,30.09,1.8,South,3.5,-,0.00,Snow,Light Snow,190,2013-01-26 04:19:00
11:31 PM,19.4,15.8,86,30.09,2.0,Calm,Calm,-,0.00,Snow,Light Snow,0,2013-01-26 04:31:00
11:48 PM,19.4,15.8,86,30.08,3.0,Calm,Calm,-,0.00,Snow,Light Snow,0,2013-01-26 04:48:00
11:49 PM,19.9,15.1,81,30.13,3.0,Calm,Calm,-,0.00,Snow,Light Snow,0,2013-01-26 04:49:00